When you browse on this site, cookies collect data to enhance your experience and personalize the content and advertising you see.
Visit our Privacy Policy to learn more. By continuing to use the site, you agree to this use of cookies and data.
  • en Suisse
  • Liste des pays
  • À 7 jours
  • Température de l'eau
  • Carte météo
  • Widgets météo
  • user-avatar
    Se connecter

    Météo par heure à Tarin Kowt

    Ce jour, 23 Février, Dimanche

    Heure Température Précipitation Vent Pression Humidité
    00:00 +9°C° 0 mm 2 m/s 620 mmHg 49%
    01:00 +8°C° 0 mm 2 m/s 619 mmHg 50%
    02:00 +8°C° 0 mm 2 m/s 619 mmHg 51%
    03:00 +7°C° 0 mm 2 m/s 619 mmHg 53%
    04:00 +7°C° 0 mm 2 m/s 618 mmHg 55%
    05:00 +7°C° 0 mm 2 m/s 619 mmHg 55%
    06:00 +7°C° 0 mm 2 m/s 619 mmHg 55%
    07:00 +7°C° 0 mm 2 m/s 619 mmHg 55%
    08:00 +8°C° 0 mm 2 m/s 620 mmHg 50%
    09:00 +10°C° 0 mm 2 m/s 620 mmHg 44%
    10:00 +12°C° 0 mm 2 m/s 621 mmHg 39%
    11:00 +13°C° 0 mm 2 m/s 620 mmHg 37%
    12:00 +14°C° 0 mm 2 m/s 620 mmHg 36%
    13:00 +15°C° 0 mm 1 m/s 620 mmHg 34%
    14:00 +15°C° 0 mm 1 m/s 620 mmHg 34%
    15:00 +15°C° 0 mm 1 m/s 619 mmHg 34%
    16:00 +15°C° 0 mm 1 m/s 619 mmHg 35%
    17:00 +14°C° 0 mm 1 m/s 619 mmHg 40%
    18:00 +13°C° 0 mm 1 m/s 619 mmHg 46%
    19:00 +11°C° 0 mm 0 m/s 619 mmHg 52%
    20:00 +11°C° 0 mm 0 m/s 619 mmHg 53%
    21:00 +10°C° 0 mm 0 m/s 619 mmHg 54%
    22:00 +10°C° 0 mm 0 m/s 618 mmHg 55%
    23:00 +10°C° 0 mm 1 m/s 618 mmHg 55%

    Demain, 24 Février, Lundi

    Heure Température Précipitation Vent Pression Humidité
    00:00 +10°C° 0 mm 1 m/s 618 mmHg 56%
    01:00 +9°C° 0 mm 1 m/s 617 mmHg 57%
    02:00 +9°C° 0 mm 1 m/s 617 mmHg 57%
    03:00 +8°C° 0 mm 1 m/s 617 mmHg 58%
    04:00 +8°C° 0 mm 1 m/s 616 mmHg 58%
    05:00 +8°C° 0 mm 1 m/s 617 mmHg 59%
    06:00 +8°C° 0 mm 1 m/s 617 mmHg 59%
    07:00 +8°C° 0 mm 1 m/s 617 mmHg 59%
    08:00 +9°C° 0 mm 1 m/s 618 mmHg 53%
    09:00 +11°C° 0 mm 1 m/s 618 mmHg 47%
    10:00 +12°C° 0 mm 1 m/s 619 mmHg 42%
    11:00 +13°C° 0 mm 2 m/s 619 mmHg 40%
    12:00 +14°C° 0 mm 2 m/s 619 mmHg 38%
    13:00 +15°C° 0 mm 2 m/s 618 mmHg 35%
    14:00 +14°C° 0 mm 3 m/s 618 mmHg 36%
    15:00 +14°C° 0 mm 3 m/s 618 mmHg 36%
    16:00 +14°C° 0 mm 3 m/s 618 mmHg 36%
    17:00 +14°C° 0 mm 2 m/s 618 mmHg 41%
    18:00 +13°C° 0 mm 2 m/s 618 mmHg 46%
    19:00 +12°C° 0 mm 1 m/s 618 mmHg 52%
    20:00 +12°C° 0 mm 1 m/s 618 mmHg 53%
    21:00 +11°C° 0 mm 1 m/s 618 mmHg 55%
    22:00 +11°C° 0 mm 1 m/s 618 mmHg 56%
    23:00 +10°C° 0 mm 1 m/s 617 mmHg 57%

    Après-demain, 25 Février, Mardi

    Heure Température Précipitation Vent Pression Humidité
    00:00 +10°C° 0 mm 1 m/s 617 mmHg 59%
    01:00 +8°C° 0 mm 0 m/s 617 mmHg 60%
    02:00 +9°C° 0 mm 1 m/s 617 mmHg 60%
    03:00 +8°C° 0 mm 1 m/s 616 mmHg 60%
    04:00 +8°C° 0 mm 1 m/s 616 mmHg 60%
    05:00 +8°C° 0 mm 1 m/s 616 mmHg 61%
    06:00 +8°C° 0 mm 1 m/s 617 mmHg 62%
    07:00 +8°C° 0 mm 1 m/s 617 mmHg 62%
    08:00 +9°C° 0 mm 1 m/s 618 mmHg 56%
    09:00 +9°C° 0 mm 2 m/s 618 mmHg 50%
    10:00 +12°C° 0 mm 2 m/s 619 mmHg 44%
    11:00 +13°C° 0 mm 2 m/s 618 mmHg 39%
    12:00 +13°C° 0 mm 2 m/s 618 mmHg 35%
    13:00 +14°C° 0 mm 2 m/s 618 mmHg 30%
    14:00 +15°C° 0 mm 2 m/s 618 mmHg 29%
    15:00 +15°C° 0 mm 1 m/s 618 mmHg 28%
    16:00 +15°C° 0 mm 1 m/s 618 mmHg 27%
    17:00 +14°C° 0 mm 1 m/s 618 mmHg 32%
    18:00 +14°C° 0 mm 1 m/s 618 mmHg 37%
    19:00 +13°C° 0 mm 1 m/s 618 mmHg 42%
    20:00 +13°C° 0 mm 1 m/s 618 mmHg 41%
    21:00 +13°C° 0 mm 1 m/s 618 mmHg 41%
    22:00 +13°C° 0 mm 1 m/s 619 mmHg 40%
    23:00 +12°C° 0 mm 1 m/s 618 mmHg 42%

    26 Février, Mercredi

    Heure Température Précipitation Vent Pression Humidité
    00:00 +11°C° 0 mm 1 m/s 618 mmHg 43%
    01:00 +10°C° 0 mm 2 m/s 617 mmHg 44%
    02:00 +9°C° 0 mm 2 m/s 617 mmHg 45%
    03:00 +10°C° 0 mm 1 m/s 617 mmHg 46%
    04:00 +10°C° 0 mm 1 m/s 616 mmHg 48%
    05:00 +9°C° 0 mm 1 m/s 617 mmHg 48%
    06:00 +9°C° 0 mm 1 m/s 617 mmHg 48%
    07:00 +9°C° 0 mm 1 m/s 617 mmHg 48%
    08:00 +11°C° 0 mm 1 m/s 617 mmHg 43%
    09:00 +12°C° 0 mm 2 m/s 618 mmHg 38%
    10:00 +14°C° 0 mm 2 m/s 619 mmHg 33%
    11:00 +15°C° 0 mm 1 m/s 618 mmHg 32%
    12:00 +16°C° 0 mm 1 m/s 618 mmHg 30%
    13:00 +16°C° 0 mm 1 m/s 618 mmHg 29%
    14:00 +18°C° 0 mm 1 m/s 618 mmHg 28%
    15:00 +18°C° 0 mm 1 m/s 618 mmHg 28%
    16:00 +18°C° 0 mm 1 m/s 618 mmHg 27%
    17:00 +18°C° 0 mm 1 m/s 618 mmHg 32%
    18:00 +16°C° 0 mm 1 m/s 618 mmHg 37%
    19:00 +15°C° 0 mm 1 m/s 618 mmHg 42%
    20:00 +15°C° 0 mm 1 m/s 617 mmHg 43%
    21:00 +14°C° 0 mm 1 m/s 617 mmHg 43%
    22:00 +13°C° 0 mm 1 m/s 617 mmHg 43%
    23:00 +13°C° 0 mm 1 m/s 617 mmHg 44%

    27 Février, Jeudi

    Heure Température Précipitation Vent Pression Humidité
    00:00 +12°C° 0 mm 1 m/s 616 mmHg 44%
    01:00 +12°C° 0 mm 1 m/s 616 mmHg 44%
    02:00 +12°C° 0 mm 1 m/s 615 mmHg 45%
    03:00 +11°C° 0 mm 1 m/s 615 mmHg 45%
    04:00 +10°C° 0 mm 2 m/s 614 mmHg 46%
    05:00 +10°C° 0 mm 2 m/s 615 mmHg 46%
    06:00 +10°C° 0 mm 2 m/s 615 mmHg 46%
    07:00 +10°C° 0 mm 2 m/s 615 mmHg 46%
    08:00 +13°C° 0 mm 2 m/s 615 mmHg 41%
    09:00 +15°C° 0 mm 2 m/s 616 mmHg 36%
    10:00 +16°C° 0 mm 3 m/s 617 mmHg 31%
    11:00 +17°C° 0 mm 4 m/s 616 mmHg 30%
    12:00 +17°C° 0 mm 5 m/s 616 mmHg 29%
    13:00 +19°C° 0 mm 6 m/s 615 mmHg 27%
    14:00 +19°C° 0 mm 6 m/s 615 mmHg 28%
    15:00 +18°C° 0 mm 7 m/s 615 mmHg 29%
    16:00 +18°C° 0 mm 8 m/s 614 mmHg 29%
    17:00 +16°C° 0.1 mm 6 m/s 614 mmHg 36%
    18:00 +15°C° 0.1 mm 4 m/s 614 mmHg 43%
    19:00 +14°C° 0.1 mm 2 m/s 613 mmHg 50%
    20:00 +14°C° 0.1 mm 2 m/s 613 mmHg 52%
    21:00 +14°C° 0.1 mm 2 m/s 614 mmHg 53%
    22:00 +13°C° 0.1 mm 2 m/s 614 mmHg 55%
    23:00 +12°C° 0.1 mm 2 m/s 613 mmHg 57%

    28 Février, Vendredi

    Heure Température Précipitation Vent Pression Humidité
    00:00 +12°C° 0.1 mm 2 m/s 613 mmHg 59%
    01:00 +10°C° 0.1 mm 2 m/s 612 mmHg 61%
    02:00 +9°C° 0 mm 2 m/s 612 mmHg 64%
    03:00 +8°C° 0 mm 2 m/s 612 mmHg 66%
    04:00 +8°C° 0 mm 2 m/s 612 mmHg 69%
    05:00 +9°C° 0 mm 1 m/s 612 mmHg 70%
    06:00 +8°C° 0 mm 1 m/s 612 mmHg 72%
    07:00 +8°C° 0 mm 1 m/s 613 mmHg 73%
    08:00 +9°C° 0 mm 1 m/s 613 mmHg 67%
    09:00 +10°C° 0 mm 1 m/s 614 mmHg 61%
    10:00 +11°C° 0 mm 1 m/s 614 mmHg 55%
    11:00 +10°C° 0 mm 2 m/s 614 mmHg 53%
    12:00 +12°C° 0 mm 2 m/s 614 mmHg 50%
    13:00 +13°C° 0 mm 2 m/s 614 mmHg 48%
    14:00 +13°C° 0 mm 2 m/s 614 mmHg 46%
    15:00 +12°C° 0 mm 3 m/s 614 mmHg 44%
    16:00 +12°C° 0 mm 3 m/s 614 mmHg 43%
    17:00 +12°C° 0 mm 2 m/s 614 mmHg 47%
    18:00 +12°C° 0 mm 2 m/s 614 mmHg 52%
    19:00 +11°C° 0 mm 1 m/s 614 mmHg 57%
    20:00 +10°C° 0 mm 1 m/s 614 mmHg 60%
    21:00 +10°C° 0 mm 1 m/s 613 mmHg 63%
    22:00 +8°C° 0 mm 0 m/s 613 mmHg 66%
    23:00 +8°C° 0 mm 0 m/s 613 mmHg 66%
    Voir plus